Skip Page Navigation
NASA JPL Caltech
NASA Logo - Jet Propulsion Laboratory + View the NASA Portal
+ Center for Near-Earth Object Studies
JPL Home Earth Solar System Stars & Galaxies Technology
JPL Solar System Dynamics
BODIES ORBITS EPHEMERIDES TOOLS PHYSICAL DATA DISCOVERY FAQ SITE MAP
JPL Small-Body Database Browser
Search: [ help ]  
(2020 TG1)
Classification: Apollo [NEO]          SPK-ID: 54055039
Ephemeris | Orbit Diagram | Orbital Elements | Mission Design | Physical Parameters | Close-Approach Data ]

[ hide orbit diagram ]

For accurate long-term ephemerides, please instead use our Horizons system.This orbit viewer was implemented using two-body methods, and hence should not be used for determining accurate long-term trajectories (over several years or decades) or planetary encounter circumstances.


Orbital Elements at Epoch 2459200.5 (2020-Dec-17.0) TDB
Reference: JPL 6 (heliocentric ecliptic J2000)
 Element Value Uncertainty (1-sigma)   Units 
e .508457153615176 0.00061829  
a 1.342821053164654 0.0010723 au
q .6600540826580211 0.00030317 au
i 5.381257497892628 0.0060664 deg
node 41.1646092170972 0.00098262 deg
peri 75.37594244817556 0.0034312 deg
M .9871451011111775 0.014953 deg
tp 2459198.941509593914
(2020-Dec-15.44150959)
0.025475 TDB
period 568.3627924195714
1.56
0.68082
0.001864
d
yr
n .6333982533716672 0.00075872 deg/d
Q 2.025588023671287 0.0016176 au
  Orbit Determination Parameters
   # obs. used (total)      28  
   data-arc span      11 days  
   first obs. used      2020-10-06  
   last obs. used      2020-10-17  
   planetary ephem.      DE441  
   SB-pert. ephem.      SB441-N16  
   condition code      7  
   norm. resid. RMS      .34301  
   source      ORB  
   producer      Otto Matic  
   solution date      2021-Apr-15 23:08:02  

Additional Information
 Earth MOID = .021752 au 
 Jupiter MOID = 3.10151 au 
 T_jup = 4.746 
[ show covariance matrix ]

Ephemeris | Orbit Diagram | Orbital Elements | Mission Design | Physical Parameters | Close-Approach Data ]

Physical Parameter Table
Parameter Symbol Value Units Sigma Reference Notes
absolute magnitude H 23.8   .30986 E2020U88 autocmod 2.8

[ hide close-approach data ]
Close-Approach Data   ...sorted by Date/Time (TDB)
Date/Time (TDB) Time Uncertainty
(days_HH:MM)
Body Nominal Distance (au) Minimum Distance (au) Maximum Distance (au) V-relative (km/s) V-infinity (km/s) JD (TDB) Time Uncertainty (minutes) Semi-major axis (km) Semi-minor axis (km) range-LOV angle (deg) N-sigma BP Orbit Ref. Reference Modified
2013-Apr-30 11:50 8_10:53 Earth 0.243113956458291 0.0720518574942675 0.416582938900991 22.0239038442587 22.0234062067927 2456412.992899325 12172.5908223006 8674671.29793935 277.497576764681 -5.64633501674813 12274.8671055976 T 6 CATAB v2.0g-lin.ifort 2021-Apr-15 23:08:03 2021-Apr-15 23:08
2020-Aug-31 21:08 05:50 Mars 0.0992256452982768 0.0992002981438505 0.0992513907377494 12.8864250100267 12.8862011102899 2459093.380450384 350.42999793535 10191.7111580769 251.141645109019 82.9642692833328 53708.9768983476 T 6 CATAB v2.0g-lin.ifort 2021-Apr-15 23:08:03 2021-Apr-15 23:08
2020-Oct-22 22:49 < 00:01 Earth 0.0470096154720279 0.0468284001338292 0.0471908299802694 13.7387410860413 13.7346149462321 2459145.450730468 0.362276375447036 9031.0842187508 29.848201088247 0.112986857515849 561.424980989958 T 6 CATAB v2.0g-lin.ifort 2021-Apr-15 23:08:03 2021-Apr-15 23:08
2024-Feb-06 16:16 9_20:18 Earth 0.320358752544837 0.309471371710012 0.331367983221439 13.9585125388639 13.9579166765872 2460347.177847900 14178.4199561412 628600.765880356 275.406807920536 29.7073612663539 64167.3656147588 T 6 CATAB v2.0g-lin.ifort 2021-Apr-15 23:08:03 2021-Apr-15 23:08
2024-Apr-30 23:17 8_13:53 Earth 0.465513528624991 0.412505884810745 0.518689378145208 7.95830533287794 7.95758608419045 2460431.470051858 12353.0291631745 2683997.45402972 185.843389346571 9.48305003840118 33301.8649298753 T 6 CATAB v2.0g-lin.ifort 2021-Apr-15 23:08:03 2021-Apr-15 23:08
2027-Apr-30 20:09 6_13:28 Earth 0.239632658627497 0.107025236049532 0.373289816042735 21.923422182941 21.922915001881 2461526.339457833 9448.28468500791 6685765.08704734 276.87969010474 -5.65662262740139 12151.9415028412 T 6 CATAB v2.0g-lin.ifort 2021-Apr-15 23:08:03 2021-Apr-15 23:08
2041-May-01 08:06 8_13:49 Earth 0.259955900842481 0.0941521774715774 0.427530798441673 22.530697146201 22.5302422184486 2466640.837270126 12349.252264268 8380824.97264457 302.585038692798 -5.63521119206456 11992.9836007706 T 6 CATAB v2.0g-lin.ifort 2021-Apr-15 23:08:03 2021-Apr-15 23:08
2044-Aug-18 23:30 1_20:16 Mars 0.0801304898308318 0.0485197636508563 0.15223439003859 13.3680819195126 13.367814653559 2467846.478877147 2656.18853579925 4015510.19007027 238.231504592811 -37.2684710768523 31220.7218106156 T 6 CATAB v2.0g-lin.ifort 2021-Apr-15 23:08:03 2021-Apr-15 23:08
2048-Oct-28 03:01 2_16:45 Earth 0.107113747200396 0.075920261300737 0.138837161058334 11.902626727814 11.900536649966 2469377.625448666 3884.80991032711 1613129.25191517 109.833696662179 -12.8509164477485 30878.5503350358 T 6 CATAB v2.0g-lin.ifort 2021-Apr-15 23:08:03 2021-Apr-15 23:08
2052-Feb-18 11:15 5_10:06 Earth 0.301849916969619 0.2893739141488 0.314346901076955 12.9025991223554 12.901914965621 2470585.969081713 7806.00781255142 635172.04202393 73.8180347688004 11.4228866505044 87207.757144731 T 6 CATAB v2.0g-lin.ifort 2021-Apr-15 23:08:03 2021-Apr-15 23:08
2055-May-05 00:48 4_06:51 Earth 0.323722627609832 0.227717262121529 0.419875200066773 24.4384858500798 24.4381490532476 2471757.533125532 6171.1073780152 4803421.86601035 308.244399766857 -3.93330922652637 10187.9875345596 T 6 CATAB v2.0g-lin.ifort 2021-Apr-15 23:08:03 2021-Apr-15 23:08
2065-Oct-21 11:01 2_04:00 Mars 0.0610710716430758 0.0588141138251007 0.144979533397789 13.9383183986763 13.9379820687511 2475579.958944472 3119.60716110779 5787961.78281312 78.5604773548884 -74.3801089633329 112455.970344075 T 6 CATAB v2.0g-lin.ifort 2021-Apr-15 23:08:03 2021-Apr-15 23:08
2069-May-04 17:34 4_21:19 Earth 0.324836082456526 0.218121864054672 0.431781015413688 24.4548538192713 24.4545184015534 2476871.232096429 7038.90072823116 5344624.97730212 325.903316304008 -4.38301076455194 10782.4295840338 T 6 CATAB v2.0g-lin.ifort 2021-Apr-15 23:08:03 2021-Apr-15 23:08
2076-Oct-31 11:09 1_05:40 Earth 0.136955838007348 0.12713358301061 0.146833616972262 11.0266554516141 11.0248909471867 2479607.964750651 1780.38973810368 510070.903491225 184.416463717206 -15.5732211862754 29071.8503511085 T 6 CATAB v2.0g-lin.ifort 2021-Apr-15 23:08:03 2021-Apr-15 23:08
2080-Feb-21 01:26 4_01:12 Earth 0.29747366355011 0.291127650425532 0.303822754042957 12.6302709790767 12.6295617878417 2480815.559887582 5831.68990417383 320102.561624366 56.9325648209988 8.62632092682146 79918.7183469113 T 6 CATAB v2.0g-lin.ifort 2021-Apr-15 23:08:03 2021-Apr-15 23:08
2083-May-05 05:11 3_02:01 Earth 0.324102102325256 0.266928495301057 0.381338014807454 24.4152152716208 24.414878548494 2481984.715786313 4440.70070240004 2861358.44738078 328.087710846732 -4.42944823991889 10781.3471390336 T 6 CATAB v2.0g-lin.ifort 2021-Apr-15 23:08:03 2021-Apr-15 23:08
2084-Sep-07 11:42 5_12:42 Venus 0.139551123562656 0.0523856303159957 0.236281153064175 18.3249596548845 18.32411046924 2482475.987510854 7962.39876538954 4939498.44300818 166.904188058048 -16.2557276619889 35679.547606075 T 6 CATAB v2.0g-lin.ifort 2021-Apr-15 23:08:03 2021-Apr-15 23:08
2091-Jan-13 21:47 9_13:12 Venus 0.115620921568253 0.0151474242408338 0.268095724408258 17.4608528463644 17.4597771729272 2484795.407483852 13751.7703330564 7631555.27853887 172.999536814317 -7.53450753098223 12698.0729139787 T 6 CATAB v2.0g-lin.ifort 2021-Apr-15 23:08:03 2021-Apr-15 23:08
2097-May-05 00:41 6_04:22 Earth 0.32874214807175 0.209348514721326 0.448429386362347 24.5642421179005 24.5639121615316 2487098.528327114 8901.84900006721 5981100.61244873 332.067980178067 -4.38468634751907 10699.3904610185 T 6 CATAB v2.0g-lin.ifort 2021-Apr-15 23:08:03 2021-Apr-15 23:08
2111-Feb-21 19:28 6_12:00 Venus 0.137140072337171 0.0422850169019293 0.250628127111124 18.1879247893946 18.1870541630262 2492138.310823136 9359.73832592135 5792559.93356598 163.667385264716 -16.7315236528211 36852.6412825538 T 6 CATAB v2.0g-lin.ifort 2021-Apr-15 23:08:03 2021-Apr-15 23:08
2111-May-09 01:00 4_15:51 Earth 0.378587186746358 0.291656121188925 0.465635170211791 26.0574883813877 26.0572182866371 2492214.541562707 6711.22365556764 4350485.33614404 369.722237317816 -4.26358791449746 10751.3274710017 T 6 CATAB v2.0g-lin.ifort 2021-Apr-15 23:08:03 2021-Apr-15 23:08
2115-Sep-27 20:42 3_01:04 Earth 0.486806632828384 0.423454034796227 0.550216723576921 29.3950908798494 29.3949046786655 2493817.362688058 4383.87006018672 3171562.53459528 128.735691397256 4.73500279592057 42815.4270070888 T 6 CATAB v2.0g-lin.ifort 2021-Apr-15 23:08:03 2021-Apr-15 23:08
2117-Jun-30 12:16 3_12:53 Venus 0.141488608640063 0.0857063176701141 0.19755026598789 18.7194709368499 18.7186510320846 2494459.011246007 5093.30901638808 2806179.90493925 164.284883291902 -5.91072601157423 12687.002018759 T 6 CATAB v2.0g-lin.ifort 2021-Apr-15 23:08:03 2021-Apr-15 23:08
2118-Nov-14 10:29 8_20:10 Earth 0.200967228894177 0.168955588904839 0.233387003104692 9.91802480952208 9.91668793331763 2494960.936700042 12729.8553498762 1668779.00249651 191.588293400197 -15.5012222428419 36663.244595608 T 6 CATAB v2.0g-lin.ifort 2021-Apr-15 23:08:03 2021-Apr-15 23:08
2122-Mar-08 14:25 04:52 Earth 0.262298558460839 0.260363552158095 0.264233623384424 10.9185038784943 10.9175734739464 2496171.100517460 291.637101108003 96690.338362213 70.7710968423151 -3.76409315205878 24914.0346385017 T 6 CATAB v2.0g-lin.ifort 2021-Apr-15 23:08:03 2021-Apr-15 23:08
